Погода в Спасе-Загорье

Россия / Калужская область     55°03′03″N   36°35′36″E
темп.,
°C
ветер,
м/с
пор.,
м/с
влажн.,
%
обл.,
%
осадки,
мм/ч
давл.,
гПа
погр.,
м
18 мая, вт
вт1800:00+18вюв41484100 0.0 1008468
03:00+16вюв411880 0.0 1007283
06:00+16вюв31085100 0.0 1007250
09:00+21юв485919 0.0 1007476
12:00+25юв6104374 0.0 1007957
15:00+26вюв6114356 0.0 10061529
18:00+24вюв6145693 0.0 10051240
21:00+19юв6158121 0.8 1005664
19 мая, ср
ср1900:00+16юв23961 0.1 100546
03:00+14в249671 0.3 100578
06:00+15юв31193100 0.0 1006443
09:00+17ююв488215 0.0 1007697
12:00+22ююв695811 0.3 10061818
15:00+23ююв585079 0.4 10062202
18:00+21юв47635 0.1 10061251
21:00+16в2291100 0.3 100624
20 мая, чт
чт2000:00+15вюв399589 0.8 1005220
03:00+13вюв3897100 0.8 1004192
06:00+14вюв4129465 0.0 1003562
09:00+16юв6107858 0.2 10031017
12:00+16юв71273100 0.8 10041178
15:00+16ююв81476100 1.6 10041594
18:00+13ю61182100 0.4 1005878
21:00+11юз51386100 0.4 1006801
21 мая, пт
пт2100:00+9ююз4109237 0.0 1007510
03:00+10юз4989100 0.0 1008688
06:00+10зюз4991100 0.1 1009730
09:00+10з4890100 0.5 1011655
12:00+14зсз477083 0.2 10131244
15:00+18сз254511 0.2 10131811
18:00+17з235655 0.0 1014534
21:00+12юв0075100 0.0 101611
22 мая, сб
сб2200:00+12ю1178100 0.0 101638
03:00+11сз1181100 0.0 101617
06:00+11в1284100 0.0 101780
09:00+16ю11689 0.0 1017729
12:00+19юв115171 0.1 10161805
15:00+17юв346361 0.1 1017583
18:00+18юв23582 0.0 1016837
21:00+12юв24840 0.0 101751